Location: D�pe
(52.6057°N, 8.1808°E)
Time: 07:41:42
(UTC+00:00)

Lacrosse 5 - Pass Details

Date: 29 October 2020
Orbit: 714 x 725 km, 57.0° (Epoch: 30 November)

Event Time Altitude Azimuth Distance (km) Brightness Sun altitude
Rises 16:28:11 0° 269° (W) 3,117 7.0 -4.6°
Reaches altitude 10° 16:30:37 10° 274° (W) 2,197 5.8 -4.9°
Maximum altitude 16:35:35 54° 352° (N) 872 2.3 -5.6°
Drops below altitude 10° 16:40:32 10° 70° (ENE) 2,199 3.7 -6.4°
Enters shadow 16:41:02 - 71° (ENE) 2,385 3.9 -6.4°
